User: anonymous   Login
Location: Sawmill Trailhead
(33.5800°N, 116.4497°W)
Time: 09:39:23
(UTC-07:00)
Language:

Uosat F - Orbit

View from above orbital plane
View from above orbital plane
View from above satellite
View from above satellite

Ground track
Ground track

The orbit data is extracted from the following two-line orbital elements,

1 21575U 91050B   16178.85970052  .00000025  00000-0  22499-4 0  9991
2 21575  98.7606 180.6526 0006162 279.6321  80.4170 14.40745869310115
Epoch (UTC): 26 June 2016 20:37:58
Eccentricity: 0.0006162
inclination: 98.7606°
perigee height: 751 km
apogee height: 760 km
right ascension of ascending node: 180.6526°
argument of perigee: 279.6321°
revolutions per day: 14.40745869
mean anomaly at epoch: 80.4170°
orbit number at epoch: 31011

The dashed part of the orbit path shows where the satellite is in the earth's shadow,  

DLR